DELTA 1 DEB

Satellite information

Favourite Embed

Satellite Type and Status

DEBRISIN ORBIT

Key statistics

Satellite DELTA 1 DEB at a glance.

Uptime

18872

Days in orbit

Revolutions

≈ 12.5

Per day

Orbit

SSO

Sun Synchronous Orbit

Inclination

102.4

Latest

Satellite identification and parameters

Extended collection of information and parameters for DELTA 1 DEB.

Object identification

Identified? True

Debris? True

Object name: DELTA 1 DEB

International designator: 1973-086FE

Object number (NORAD): 7196

Object ID (CCSDS): 7196

Country: UNITED STATES OF AMERICA (US)

Current information (Y/N): Y

RCS size: SMALL

Orbital parameters

Period: 115.472 minutes

Inclination: 102.3836 deg

SMA: 7854.968 km

Apoapsis: 1517.648 km

Periapsis: 1436.018 km

RAAN: 173.0675 deg

Eccentricy: 0.0051961

Argument of periapsis: 144.3135 deg

Mean anomaly: 230.6862 deg

Mean motion: 12.47056436 rev/day

Mean motion (dot): -0.00000015 rev/day2

B* drag term: 0.00022111 1/REarth

Two-line elements (TLE)

Creation date: July 8, 2025, 2:27 a.m.

Reference frame: TEME

Reference center: EARTH

Epoch: July 7, 2025, 10:47 p.m. UTC

TLE line 0: 0 DELTA 1 DEB

TLE line 1: 1 07196U 73086FE 25188.94936606 -.00000015 00000-0 22111-3 0 9991

TLE line 2: 2 07196 102.3836 173.0675 0051961 144.3135 230.6862 12.47056436351048

Live tracking on map

Real-time ground track for satellite DELTA 1 DEB.

In-orbit conjunctions

A list of the most updated potential collisions computed for object DELTA 1 DEB.

Target Orbit TCA Probability of collision Miss distance Type
COSMOS 718 LEO 2024-09-01 20:51:44 0.0001450552 69.0 (m) PAYLOAD

Associated space launch

Meteorological satellite using radiometric imaging

DELTA 1 DEB was lifted into orbit during the mission ‘Delta 0300 | NOAA 3’, on board a Delta 0300 space rocket.

The launch took place on Nov. 6, 1973, 5:02 p.m. from Space Launch Complex 2W.

For more information about the launch, click the button.

Launch to space Delta 0300 | NOAA 3
Delta 0300 | NOAA 3

Agency: N/A

Status: Launch Successful

Launch date: Nov. 6, 1973, 5:02 p.m. UTC

Rocket: Delta 0300

Launch pad: Space Launch Complex 2W

Location: Vandenberg SFB, CA, USA

...

Latest news about this satellite

There are no fresh news available about this satellite. Check back as we update our databases every day.


Newsletter sign-up

Weekly statistics, charts and insights to help you stay on top of the space industry.